[[{"header":{"parameterUnit":"m.s-1","parameterCategory":1,"la1":30.2991,"la2":30.254,"lo1":-89.0895,"lo2":-89.0444,"dy":0.0017,"dx":0.0017,"nx":28,"ny":28,"refTime":"2025-03-13T21:00:00:Z","depth":0,"parameterNumber":2,"parameterNumberName":"U-component_of_WINDS"},"data":[0,0,0,0,0,0,0,0,0,0,0,0,0,0,0,0,0,0,0,0,0,0,0,0,0,0,0,0,0,0,0,0,0,0,0,0,0,0,0,0,0,0,0,0,0,0,0,0,0,0,0,0,0,0,0,0,0,0,-1.0775,-1.0775,0,-1.0772,-1.0772,-1.0772,-1.0781,-1.0782,-1.0782,-1.0782,-1.0778,-1.0778,-1.0777,0,0,0,0,0,0,0,0,0,0,0,0,0,-1.0786,-1.0786,-1.0775,-1.0775,-1.0775,-1.0772,-1.0772,-1.0772,-1.0781,-1.0782,-1.0782,-1.0782,-1.0778,-1.0778,-1.0777,0,0,0,0,0,0,0,0,0,0,0,0,0,-1.0782,-1.0786,-1.0775,-1.0779,-1.0779,-1.0772,-1.0772,-1.0772,-1.0781,-1.0782,-1.0782,-1.0782,-1.0778,-1.0778,-1.0777,-1.0765,0,0,-1.0775,-1.0775,0,0,0,0,0,0,0,0,-1.0782,-1.0781,-1.0778,-1.0779,-1.0779,-1.0777,-1.0774,-1.077,-1.0781,-1.078,-1.0782,-1.0783,-1.0777,-1.0777,-1.0775,-1.0765,-1.0765,-1.0775,-1.0775,-1.0775,-1.0775,0,0,0,0,0,0,0,-1.0782,-1.0782,-1.0773,-1.0778,-1.0779,-1.078,-1.078,-1.0774,-1.0776,-1.078,-1.0781,-1.0781,-1.0778,-1.0776,-1.0775,-1.0765,-1.0775,-1.0775,-1.0775,-1.0774,-1.0743,-1.0743,0,0,0,0,0,0,-1.0782,-1.0782,-1.0774,-1.0773,-1.0782,-1.078,-1.078,-1.0777,-1.0777,-1.0777,-1.078,-1.0781,-1.0777,-1.0776,-1.0775,-1.076,-1.0775,-1.0774,-1.0774,-1.0743,-1.0743,-1.0742,0,0,0,0,0,0,-1.0782,-1.0781,-1.0774,-1.0778,-1.0777,-1.0779,-1.0777,-1.0777,-1.0776,-1.0777,-1.0777,-1.0778,-1.0777,-1.0776,-1.0767,-1.076,-1.0774,-1.0773,-1.0744,-1.0743,-1.0743,-1.0731,0,0,0,0,0,0,-1.0783,-1.0781,-1.0777,-1.0778,-1.0777,-1.0766,-1.0776,-1.0777,-1.0775,-1.0776,-1.0775,-1.0775,-1.0777,-1.0768,-1.0767,-1.076,-1.0773,-1.0745,-1.0744,-1.0743,-1.0732,-1.073,-1.0728,0,0,0,0,0,-1.0783,-1.0774,-1.0777,-1.0776,-1.0772,-1.0766,-1.0765,-1.0769,-1.0774,-1.077,-1.077,-1.0775,-1.0761,-1.0767,-1.0766,-1.0758,-1.0745,-1.0744,-1.0743,-1.0732,-1.073,-1.0728,0,0,0,0,0,0,-1.0773,-1.0774,-1.0778,-1.0768,-1.0767,-1.0768,-1.0762,-1.0766,-1.0763,-1.0764,-1.0768,-1.0767,-1.0758,-1.0757,-1.0764,-1.0746,-1.0754,-1.0753,-1.0747,-1.0744,-1.0742,-1.0742,-1.0773,0,0,0,0,0,-1.0769,-1.0765,-1.0767,-1.0758,-1.0757,-1.076,-1.0757,-1.076,-1.0759,-1.0758,-1.0758,-1.0756,-1.0751,-1.0748,-1.0744,-1.0732,-1.0731,-1.0726,-1.0724,-1.0722,-1.0721,-1.0713,-1.0711,-1.0739,-1.0739,-1.0739,0,0,-1.0762,-1.0763,-1.076,-1.0756,-1.0755,-1.075,-1.0759,-1.0754,-1.0749,-1.0757,-1.0749,-1.0748,-1.0746,-1.0736,-1.0731,-1.0735,-1.0713,-1.0721,-1.072,-1.0719,-1.0712,-1.0709,-1.0707,-1.0738,-1.0738,-1.0738,0,0,-1.0746,-1.0747,-1.0739,-1.0738,-1.0737,-1.0739,-1.0737,-1.0737,-1.0737,-1.0729,-1.0734,-1.0729,-1.0721,-1.0719,-1.0717,-1.07,-1.0704,-1.0698,-1.0688,-1.0681,-1.0678,-1.0676,-1.0669,-1.0667,-1.0697,-1.0697,-1.0697,0,-1.0738,-1.0731,-1.0735,-1.0729,-1.0727,-1.0734,-1.0726,-1.0724,-1.0722,-1.072,-1.0724,-1.0714,-1.0713,-1.0701,-1.0697,-1.0696,-1.0693,-1.0698,-1.0678,-1.0676,-1.0675,-1.0668,-1.0665,-1.0696,-1.0696,-1.0696,-1.0696,0,-1.0719,-1.0714,-1.0708,-1.0706,-1.0703,-1.0696,-1.0699,-1.0695,-1.0698,-1.0699,-1.069,-1.0689,-1.0684,-1.0682,-1.0685,-1.067,-1.0673,-1.0678,-1.0686,-1.0671,-1.0665,-1.0662,-1.0695,-1.0695,-1.0696,-1.0696,0,0,-1.0697,-1.0696,-1.0694,-1.0692,-1.0691,-1.0687,-1.068,-1.0676,-1.0672,-1.067,-1.0663,-1.0656,-1.0661,-1.0658,-1.0661,-1.0654,-1.0639,-1.066,-1.066,-1.0655,-1.0622,-1.0617,-1.0614,-1.0642,-1.0642,-1.0641,-1.0622,0,-1.068,-1.0669,-1.0672,-1.066,-1.0655,-1.0661,-1.0655,-1.0653,-1.0653,-1.0648,-1.0649,-1.0643,-1.065,-1.0648,-1.0643,-1.0642,-1.0633,-1.0644,-1.0635,-1.0635,-1.0634,-1.0611,-1.0607,-1.0588,-1.062,-1.0619,-1.0619,0,-1.066,-1.0657,-1.0644,-1.0643,-1.0641,-1.0635,-1.0631,-1.0627,-1.0624,-1.0625,-1.0622,-1.0626,-1.0618,-1.0626,-1.0614,-1.0622,-1.0619,-1.0618,-1.0617,-1.0616,-1.0625,-1.0608,-1.0583,-1.0579,-1.0615,-1.0615,-1.0616,0,-1.0643,-1.0636,-1.0627,-1.0626,-1.0625,-1.0621,-1.062,-1.0618,-1.0615,-1.0611,-1.0609,-1.0604,-1.0601,-1.0597,-1.0598,-1.0605,-1.0586,-1.0595,-1.0585,-1.0585,-1.058,-1.058,-1.0553,-1.058,-1.058,-1.058,-1.058,0,-1.0624,-1.0616,-1.062,-1.0614,-1.0605,-1.0609,-1.0599,-1.0599,-1.0597,-1.0591,-1.0596,-1.059,-1.0593,-1.0587,-1.0589,-1.0578,-1.0577,-1.0576,-1.0577,-1.0575,-1.0575,-1.0572,-1.0573,-1.0579,-1.0579,-1.0579,-1.0579,0,-1.0604,-1.0606,-1.0597,-1.0597,-1.0596,-1.0589,-1.0589,-1.0583,-1.0584,-1.0576,-1.0574,-1.0575,-1.0568,-1.057,-1.0562,-1.0563,-1.0549,-1.0552,-1.055,-1.055,-1.054,-1.054,-1.0509,-1.0504,-1.0535,-1.0535,-1.0534,0,-1.0591,-1.0585,-1.0584,-1.058,-1.0579,-1.0573,-1.057,-1.0574,-1.057,-1.0566,-1.0561,-1.0554,-1.0549,-1.0538,-1.0537,-1.0531,-1.0533,-1.0522,-1.0532,-1.053,-1.0531,-1.0531,-1.0529,-1.052,-1.0519,-1.0519,-1.0519,0,-1.0568,-1.0569,-1.0565,-1.056,-1.0556,-1.0553,-1.055,-1.0546,-1.0549,-1.0545,-1.0538,-1.0534,-1.0526,-1.0519,-1.0513,-1.0511,-1.0515,-1.0516,-1.0513,-1.0511,-1.051,-1.0509,-1.0543,-1.0516,-1.0517,-1.0517,-1.0517,-1.0517,-1.055,-1.0544,-1.0542,-1.0537,-1.0535,-1.0532,-1.0526,-1.0526,-1.0521,-1.0515,-1.0517,-1.0509,-1.0506,-1.0498,-1.0496,-1.0489,-1.0492,-1.0489,-1.0487,-1.0486,-1.0484,-1.0512,-1.0488,-1.0488,-1.0488,-1.0488,-1.0488,0,-1.0526,-1.0525,-1.052,-1.0515,-1.0511,-1.0516,-1.0512,-1.0507,-1.05,-1.0497,-1.0492,-1.0484,-1.0477,-1.0476,-1.0469,-1.0463,-1.0464,-1.0461,-1.0461,-1.046,-1.0482,-1.0484,-1.046,-1.046,-1.046,-1.046,-1.046,-1.046,-1.0513,-1.0503,-1.0504,-1.0493,-1.0492,-1.0484,-1.0482,-1.0478,-1.0476,-1.0466,-1.0461,-1.046,-1.0457,-1.045,-1.0444,-1.0443,-1.044,-1.0436,-1.0436,-1.0456,-1.0459,-1.0461,-1.0464,-1.0435,-1.0435,-1.0414,-1.0414,-1.0414]},{"header":{"parameterUnit":"m.s-1","parameterCategory":1,"la1":30.2991,"la2":30.254,"lo1":-89.0895,"lo2":-89.0444,"dy":0.0017,"dx":0.0017,"nx":28,"ny":28,"refTime":"2025-03-13T21:00:00:Z","depth":0,"parameterNumber":3,"parameterNumberName":"V-component_of_WINDS"},"data":[0,0,0,0,0,0,0,0,0,0,0,0,0,0,0,0,0,0,0,0,0,0,0,0,0,0,0,0,0,0,0,0,0,0,0,0,0,0,0,0,0,0,0,0,0,0,0,0,0,0,0,0,0,0,0,0,0,0,3.3686,3.3688,0,3.3862,3.3864,3.3866,3.3891,3.3889,3.3888,3.3886,3.4058,3.4064,3.407,0,0,0,0,0,0,0,0,0,0,0,0,0,3.3368,3.3374,3.3686,3.3688,3.3691,3.3861,3.3864,3.3866,3.3891,3.3889,3.3887,3.3885,3.4056,3.4063,3.4071,0,0,0,0,0,0,0,0,0,0,0,0,0,3.3521,3.3376,3.3686,3.3724,3.3729,3.3861,3.3864,3.3867,3.3892,3.3889,3.3887,3.3885,3.4054,3.4063,3.4072,3.4175,0,0,3.4099,3.4103,0,0,0,0,0,0,0,0,3.3512,3.3533,3.3716,3.3721,3.3727,3.3852,3.3815,3.397,3.3892,3.383,3.3886,3.3883,3.3991,3.4005,3.4043,3.4184,3.4191,3.41,3.4106,3.411,3.4112,0,0,0,0,0,0,0,3.3502,3.3525,3.3755,3.3719,3.3726,3.3731,3.375,3.3844,3.3921,3.3835,3.3837,3.3858,3.3994,3.4034,3.4047,3.4193,3.41,3.4108,3.4114,3.4117,3.4432,3.4435,0,0,0,0,0,0,3.3485,3.3516,3.375,3.3761,3.3612,3.3738,3.376,3.3814,3.392,3.3934,3.386,3.3858,3.402,3.4037,3.4053,3.4186,3.4109,3.4118,3.4123,3.4429,3.4433,3.4436,0,0,0,0,0,0,3.3478,3.3506,3.3743,3.3639,3.367,3.3746,3.3808,3.3819,3.386,3.3939,3.3953,3.3888,3.4019,3.4041,3.4147,3.4192,3.4122,3.413,3.4426,3.443,3.4434,3.4448,0,0,0,0,0,0,3.3469,3.3503,3.3544,3.364,3.3675,3.3834,3.381,3.3824,3.3876,3.3876,3.3969,3.3982,3.4018,3.4133,3.4156,3.4203,3.4137,3.4422,3.4428,3.4433,3.4444,3.4452,3.446,0,0,0,0,0,3.3457,3.3538,3.3546,3.3574,3.3729,3.3837,3.3857,3.39,3.388,3.3922,3.3973,3.3979,3.4183,3.4143,3.4169,3.422,3.4419,3.4426,3.4433,3.444,3.4451,3.4459,0,0,0,0,0,0,3.3442,3.3551,3.3561,3.3676,3.3748,3.3841,3.3895,3.3908,3.3985,3.3981,3.4028,3.4049,3.4154,3.4197,3.4151,3.4328,3.4299,3.4311,3.4296,3.4307,3.4314,3.4302,3.4145,0,0,0,0,0,3.3452,3.3533,3.3623,3.3716,3.3752,3.3817,3.3866,3.3893,3.3968,3.3997,3.4056,3.4127,3.4208,3.4259,3.4337,3.445,3.4472,3.4498,3.4505,3.4511,3.4522,3.4588,3.4602,3.4457,3.4457,3.4457,0,0,3.3474,3.3544,3.3591,3.3715,3.3773,3.3855,3.3842,3.3928,3.3989,3.4009,3.4115,3.4161,3.4243,3.4354,3.4406,3.4393,3.4567,3.452,3.4524,3.4531,3.4596,3.461,3.4622,3.4462,3.4461,3.446,0,0,3.3556,3.3616,3.3702,3.3762,3.3852,3.3896,3.3916,3.4009,3.4042,3.4149,3.4167,3.4239,3.4376,3.4435,3.4483,3.4591,3.46,3.4614,3.4656,3.472,3.4731,3.4742,3.4783,3.4797,3.4624,3.4624,3.4624,0,3.357,3.3696,3.3743,3.3831,3.3885,3.3911,3.3999,3.4054,3.4163,3.42,3.4185,3.4361,3.4417,3.4544,3.4571,3.4608,3.4634,3.4605,3.4726,3.4737,3.4747,3.4787,3.4803,3.4626,3.4625,3.4625,3.4625,0,3.3711,3.3799,3.3857,3.3967,3.4028,3.4114,3.4174,3.423,3.4252,3.4297,3.4407,3.4477,3.4571,3.4603,3.4623,3.4734,3.4724,3.4717,3.4689,3.4762,3.4801,3.4816,3.4628,3.4627,3.4627,3.4626,0,0,3.3787,3.3925,3.3946,3.3998,3.4102,3.4169,3.4257,3.4353,3.4402,3.4476,3.4553,3.467,3.4666,3.472,3.4747,3.4803,3.4889,3.479,3.4793,3.4809,3.5018,3.5025,3.5041,3.4895,3.4898,3.49,3.5012,0,3.3883,3.4045,3.4091,3.4227,3.4309,3.4336,3.4413,3.4485,3.453,3.4605,3.4653,3.4737,3.4723,3.4757,3.4814,3.4867,3.4932,3.4859,3.4966,3.497,3.4948,3.5061,3.5068,3.517,3.5027,3.503,3.5032,0,3.4016,3.4099,3.4244,3.4341,3.4378,3.4446,3.454,3.4612,3.4693,3.4722,3.4785,3.4809,3.4902,3.4869,3.4998,3.4947,3.4994,3.5027,3.5032,3.5045,3.5006,3.508,3.5203,3.5219,3.5055,3.5053,3.5051,0,3.4061,3.4208,3.4315,3.4358,3.4473,3.4522,3.4571,3.4651,3.4707,3.4787,3.4825,3.4913,3.4962,3.503,3.5078,3.5048,3.5204,3.5173,3.5231,3.523,3.5263,3.5261,3.5398,3.5289,3.5289,3.5289,3.5288,0,3.4164,3.4253,3.4338,3.4404,3.4504,3.4556,3.4653,3.4703,3.4775,3.4851,3.4878,3.4948,3.5005,3.5083,3.512,3.5223,3.5244,3.527,3.5279,3.5269,3.5266,3.5301,3.5296,3.5293,3.5292,3.5291,3.529,0,3.4231,3.4291,3.4411,3.4511,3.4539,3.4609,3.4694,3.4759,3.4806,3.4902,3.4927,3.5,3.5093,3.5148,3.5263,3.5288,3.5404,3.5408,3.5378,3.5382,3.5438,3.5433,3.5604,3.5631,3.5502,3.5503,3.5504,0,3.4294,3.4364,3.4474,3.4529,3.458,3.4666,3.4725,3.4779,3.4839,3.494,3.4993,3.5089,3.5169,3.5316,3.5379,3.5468,3.5477,3.5531,3.549,3.5479,3.5481,3.5477,3.5486,3.5538,3.5539,3.554,3.5541,0,3.4402,3.4429,3.4514,3.4611,3.4682,3.476,3.4837,3.4879,3.4946,3.5012,3.511,3.5172,3.5294,3.5389,3.5485,3.5534,3.5549,3.5553,3.5572,3.5563,3.5544,3.5558,3.54,3.5549,3.5548,3.5548,3.5547,3.5547,3.4471,3.4536,3.4625,3.4719,3.4784,3.4857,3.4924,3.4982,3.5066,3.5172,3.5197,3.5301,3.5383,3.5514,3.5566,3.5647,3.5638,3.5663,3.5671,3.5677,3.5681,3.553,3.5664,3.5664,3.5664,3.5664,3.5663,0,3.4582,3.4641,3.4728,3.4838,3.4913,3.4924,3.5011,3.5073,3.5165,3.5242,3.5321,3.5435,3.5529,3.56,3.5695,3.5747,3.5756,3.577,3.5768,3.578,3.5682,3.5658,3.5761,3.5761,3.5761,3.5761,3.5761,3.5761,3.4649,3.4761,3.4799,3.4943,3.5002,3.5107,3.5156,3.5223,3.5286,3.5413,3.5493,3.554,3.5615,3.5717,3.5803,3.5821,3.5856,3.587,3.5889,3.5797,3.5786,3.5776,3.5754,3.5876,3.5876,3.5981,3.5982,3.5983]}]]